Tracking 32954 objects as of 18-Jan-2026
HD Live streaming from Space Station
objects crossing your sky now

YUNYAO-1 19

Track YUNYAO-1 19 now!
10-day predictions


NORAD ID: 58759
Int'l Code: 2024-009B
Perigee: 526.2 km
Apogee: 532.4 km
Inclination: 50.0 °
Period: 95.1 minutes
Semi major axis: 6900 km
RCS: Unknown
Launch date: January 11, 2024
Source: People's Republic of China (PRC)
Launch site: Yellow Sea Launch Area, China (YSLA)
Your satellite tracking list
Your tracking list is empty




NASA's NSSDC Master Catalog

Two Line Element Set (TLE):
1 58759U 24009B   26018.63164617  .00008394  00000-0  46400-3 0  9991
2 58759  49.9820 177.0497 0004461  40.9910 319.1375 15.14604617111974
Source of the keplerian elements: AFSPC